Hourly Weather Rudenka

Today, 20 April, Tuesday

Time Temperature Precipitation Wind Pressure Humidity
00:00 +5°C° 0 mm 4 mps 750 mmHg 88%
01:00 +5°C° 0 mm 3 mps 749 mmHg 88%
02:00 +5°C° 0 mm 3 mps 749 mmHg 89%
03:00 +5°C° 0 mm 3 mps 749 mmHg 89%
04:00 +5°C° 0 mm 3 mps 749 mmHg 89%
05:00 +5°C° 0 mm 3 mps 748 mmHg 89%
06:00 +5°C° 0 mm 3 mps 748 mmHg 87%
07:00 +5°C° 0 mm 4 mps 748 mmHg 85%
08:00 +5°C° 0 mm 4 mps 748 mmHg 84%
09:00 +6°C° 0 mm 4 mps 748 mmHg 81%
10:00 +6°C° 0 mm 4 mps 747 mmHg 79%
11:00 +8°C° 0 mm 3 mps 747 mmHg 76%
12:00 +7°C° 0.1 mm 4 mps 747 mmHg 75%
13:00 +7°C° 0.1 mm 4 mps 747 mmHg 74%
14:00 +8°C° 0.1 mm 4 mps 746 mmHg 73%
15:00 +7°C° 0.1 mm 4 mps 746 mmHg 75%
16:00 +7°C° 0.1 mm 4 mps 745 mmHg 77%
17:00 +7°C° 0.1 mm 4 mps 745 mmHg 78%
18:00 +6°C° 0 mm 4 mps 745 mmHg 82%
19:00 +6°C° 0 mm 4 mps 745 mmHg 85%
20:00 +5°C° 0 mm 3 mps 745 mmHg 88%
21:00 +5°C° 0 mm 3 mps 745 mmHg 89%
22:00 +5°C° 0 mm 4 mps 744 mmHg 90%
23:00 +4°C° 0 mm 4 mps 744 mmHg 91%

Tomorrow, 21 April, Wednesday

Time Temperature Precipitation Wind Pressure Humidity
00:00 +4°C° 0.1 mm 3 mps 744 mmHg 92%
01:00 +4°C° 0.1 mm 3 mps 744 mmHg 92%
02:00 +4°C° 0.1 mm 3 mps 743 mmHg 93%
03:00 +4°C° 0.2 mm 3 mps 743 mmHg 94%
04:00 +4°C° 0.2 mm 3 mps 743 mmHg 94%
05:00 +3°C° 0.2 mm 3 mps 743 mmHg 95%
06:00 +3°C° 0.2 mm 3 mps 744 mmHg 95%
07:00 +3°C° 0.2 mm 3 mps 744 mmHg 94%
08:00 +4°C° 0.2 mm 2 mps 744 mmHg 94%
09:00 +5°C° 0.2 mm 2 mps 744 mmHg 93%
10:00 +5°C° 0.2 mm 2 mps 744 mmHg 92%
11:00 +5°C° 0.2 mm 2 mps 744 mmHg 91%
12:00 +6°C° 0.1 mm 2 mps 745 mmHg 89%
13:00 +6°C° 0.1 mm 2 mps 745 mmHg 86%
14:00 +7°C° 0.1 mm 2 mps 745 mmHg 83%
15:00 +7°C° 0 mm 2 mps 745 mmHg 79%
16:00 +9°C° 0 mm 1 mps 745 mmHg 74%
17:00 +10°C° 0 mm 1 mps 745 mmHg 70%
18:00 +8°C° 0 mm 2 mps 745 mmHg 74%
19:00 +6°C° 0 mm 2 mps 745 mmHg 78%
20:00 +4°C° 0 mm 3 mps 746 mmHg 82%
21:00 +4°C° 0 mm 3 mps 746 mmHg 83%
22:00 +4°C° 0 mm 3 mps 746 mmHg 84%
23:00 +4°C° 0 mm 3 mps 746 mmHg 84%

Day after tomorrow, 22 April, Thursday

Time Temperature Precipitation Wind Pressure Humidity
00:00 +3°C° 0 mm 3 mps 746 mmHg 86%
01:00 +3°C° 0 mm 3 mps 746 mmHg 87%
02:00 +3°C° 0 mm 3 mps 746 mmHg 89%
03:00 +3°C° 0 mm 3 mps 746 mmHg 91%
04:00 +3°C° 0 mm 3 mps 746 mmHg 93%
05:00 +3°C° 0 mm 3 mps 746 mmHg 94%
06:00 +4°C° 0 mm 3 mps 746 mmHg 90%
07:00 +6°C° 0 mm 4 mps 747 mmHg 86%
08:00 +8°C° 0 mm 4 mps 747 mmHg 81%
09:00 +10°C° 0.3 mm 5 mps 747 mmHg 74%
10:00 +12°C° 0.3 mm 5 mps 747 mmHg 67%
11:00 +14°C° 0.3 mm 6 mps 747 mmHg 60%
12:00 +15°C° 0.1 mm 6 mps 746 mmHg 54%
13:00 +15°C° 0.1 mm 5 mps 746 mmHg 48%
14:00 +16°C° 0.1 mm 5 mps 746 mmHg 43%
15:00 +16°C° 0 mm 5 mps 746 mmHg 47%
16:00 +15°C° 0 mm 5 mps 746 mmHg 51%
17:00 +15°C° 0 mm 4 mps 746 mmHg 56%
18:00 +13°C° 0 mm 4 mps 746 mmHg 63%
19:00 +12°C° 0 mm 4 mps 746 mmHg 70%
20:00 +10°C° 0 mm 3 mps 747 mmHg 77%
21:00 +10°C° 0.1 mm 3 mps 746 mmHg 82%
22:00 +8°C° 0.1 mm 4 mps 746 mmHg 87%
23:00 +7°C° 0.1 mm 4 mps 746 mmHg 91%

23 April, Friday

Time Temperature Precipitation Wind Pressure Humidity
00:00 +7°C° 0 mm 4 mps 746 mmHg 91%
01:00 +7°C° 0 mm 4 mps 747 mmHg 90%
02:00 +7°C° 0 mm 4 mps 747 mmHg 90%
03:00 +7°C° 0 mm 3 mps 747 mmHg 89%
04:00 +7°C° 0 mm 2 mps 747 mmHg 89%
05:00 +8°C° 0 mm 1 mps 747 mmHg 88%
06:00 +6°C° 0.4 mm 2 mps 747 mmHg 88%
07:00 +5°C° 0.4 mm 3 mps 748 mmHg 87%
08:00 +4°C° 0.4 mm 4 mps 748 mmHg 87%
09:00 +4°C° 1.2 mm 4 mps 748 mmHg 87%
10:00 +3°C° 1.2 mm 3 mps 748 mmHg 87%
11:00 +4°C° 1.2 mm 2 mps 749 mmHg 87%
12:00 +4°C° 0.7 mm 2 mps 749 mmHg 85%
13:00 +5°C° 0.7 mm 2 mps 748 mmHg 82%
14:00 +6°C° 0.7 mm 2 mps 748 mmHg 80%
15:00 +5°C° 0.1 mm 3 mps 748 mmHg 79%
16:00 +5°C° 0.1 mm 3 mps 748 mmHg 79%
17:00 +7°C° 0.1 mm 3 mps 748 mmHg 79%
18:00 +5°C° 0.1 mm 3 mps 748 mmHg 81%
19:00 +4°C° 0.1 mm 3 mps 748 mmHg 84%
20:00 +3°C° 0.1 mm 3 mps 748 mmHg 87%
21:00 +3°C° 0 mm 3 mps 748 mmHg 87%
22:00 +2°C° 0 mm 3 mps 748 mmHg 87%
23:00 +1°C° 0 mm 3 mps 748 mmHg 88%

24 April, Saturday

Time Temperature Precipitation Wind Pressure Humidity
00:00 +1°C° 0 mm 3 mps 747 mmHg 89%
01:00 0°C° 0 mm 3 mps 747 mmHg 91%
02:00 0°C° 0 mm 3 mps 747 mmHg 93%
03:00 -1°C° 0 mm 4 mps 747 mmHg 91%
04:00 0°C° 0 mm 4 mps 747 mmHg 90%
05:00 0°C° 0 mm 4 mps 747 mmHg 89%
06:00 0°C° 0.1 mm 5 mps 747 mmHg 87%
07:00 0°C° 0.1 mm 5 mps 747 mmHg 84%
08:00 +1°C° 0.1 mm 6 mps 748 mmHg 81%
09:00 +2°C° 0.1 mm 6 mps 748 mmHg 71%
10:00 +3°C° 0.1 mm 6 mps 748 mmHg 60%
11:00 +3°C° 0.1 mm 7 mps 748 mmHg 50%
12:00 +4°C° 0.1 mm 7 mps 748 mmHg 50%
13:00 +4°C° 0.1 mm 7 mps 748 mmHg 50%
14:00 +4°C° 0.1 mm 7 mps 748 mmHg 50%
15:00 +4°C° 0.2 mm 6 mps 748 mmHg 53%
16:00 +4°C° 0.2 mm 6 mps 748 mmHg 56%
17:00 +4°C° 0.2 mm 6 mps 748 mmHg 59%
18:00 +3°C° 0 mm 5 mps 748 mmHg 64%
19:00 +3°C° 0 mm 4 mps 748 mmHg 69%
20:00 +2°C° 0 mm 3 mps 748 mmHg 74%
21:00 0°C° 0 mm 4 mps 748 mmHg 76%
22:00 0°C° 0 mm 4 mps 748 mmHg 79%
23:00 0°C° 0 mm 4 mps 748 mmHg 81%

25 April, Sunday

Time Temperature Precipitation Wind Pressure Humidity
00:00 -1°C° 0 mm 4 mps 748 mmHg 83%
01:00 -1°C° 0 mm 4 mps 748 mmHg 85%
02:00 -1°C° 0 mm 4 mps 748 mmHg 87%
03:00 -1°C° 0 mm 3 mps 748 mmHg 88%
04:00 -1°C° 0 mm 3 mps 748 mmHg 90%
05:00 -1°C° 0 mm 3 mps 748 mmHg 91%
06:00 -1°C° 0 mm 4 mps 748 mmHg 84%
07:00 0°C° 0 mm 4 mps 748 mmHg 76%
08:00 +1°C° 0 mm 4 mps 749 mmHg 69%
09:00 +2°C° 0.1 mm 5 mps 749 mmHg 60%
10:00 +3°C° 0.1 mm 6 mps 749 mmHg 51%
11:00 +4°C° 0.1 mm 6 mps 749 mmHg 43%
12:00 +5°C° 0.1 mm 7 mps 748 mmHg 45%
13:00 +5°C° 0.1 mm 7 mps 748 mmHg 47%
14:00 +5°C° 0.1 mm 8 mps 748 mmHg 49%
15:00 +5°C° 0.2 mm 8 mps 748 mmHg 52%
16:00 +5°C° 0.2 mm 7 mps 748 mmHg 56%
17:00 +4°C° 0.2 mm 7 mps 747 mmHg 59%
18:00 +4°C° 0.2 mm 7 mps 748 mmHg 64%
19:00 +3°C° 0.2 mm 7 mps 748 mmHg 69%
20:00 +2°C° 0.2 mm 6 mps 748 mmHg 74%
21:00 +1°C° 0 mm 6 mps 748 mmHg 77%
22:00 +1°C° 0 mm 6 mps 748 mmHg 80%
23:00 +1°C° 0 mm 6 mps 748 mmHg 83%
Show more